DW9210 Weather Reports


Display with metric or nautical units.
time (UTC)temp
F
wind
direction
speed
MPH
gust
MPH
rain 1hr
in
rain 24hr
in
rain mn
in
humidity
%
barometer
mb
20260905022503 79 77 1.0 2.0 0.00 0.00 0.00 80 1012.2
20260905022003 79 77 1.0 3.0 0.00 0.00 0.00 80 1012.2
20260905021503 79 90 2.0 4.0 0.00 0.00 0.00 80 1012.2
20260905021003 79 90 2.0 4.0 0.00 0.00 0.00 80 1012.2
20260905020503 79 71 2.0 5.0 0.00 0.00 0.00 81 1012.2
20260905020003 79 62 3.0 6.0 0.00 0.00 0.00 81 1012.1
20260905015503 79 59 3.0 6.0 0.00 0.00 0.00 81 1012.1
20260905015003 80 44 2.0 5.0 0.00 0.00 0.00 82 1012.1
20260905014503 80 34 2.0 4.0 0.00 0.00 0.00 82 1012.0
20260905014003 80 44 2.0 4.0 0.00 0.00 0.00 81 1012.0
20260905013503 80 36 2.0 4.0 0.00 0.00 0.00 82 1011.9
20260905013024 80 22 1.0 3.0 0.00 0.00 0.00 82 1011.8
20260905012524 80 12 1.0 3.0 0.00 0.00 0.00 83 1011.8
20260905012003 80 15 1.0 5.0 0.00 0.00 0.00 84 1011.8
20260905011524 80 35 2.0 5.0 0.00 0.00 0.00 83 1011.7
20260905011003 80 50 2.0 6.0 0.00 0.00 0.00 83 1011.6
20260905010524 80 49 3.0 7.0 0.00 0.00 0.00 84 1011.5
20260905010003 80 46 1.0 7.0 0.00 0.00 0.00 85 1011.5
20260905005503 81 0 0.0 0.0 0.00 0.00 0.00 84 1011.4
20260905005003 81 0 0.0 0.0 0.00 0.00 0.00 82 1011.3
20260905004524 82 0 0.0 0.0 0.00 0.00 0.00 83 1011.2
20260905004003 82 161 0.0 1.0 0.00 0.00 0.00 82 1011.1
20260905003503 82 162 0.0 1.0 0.00 0.00 0.00 82 1011.1
20260905003003 82 165 0.0 1.0 0.00 0.00 0.00 82 1011.0
20260905002503 83 256 0.0 2.0 0.00 0.00 0.00 79 1011.0
20260905002003 84 245 1.0 2.0 0.00 0.00 0.00 78 1010.8
20260905001503 84 235 1.0 2.0 0.00 0.00 0.00 76 1010.8
20260905001003 85 212 0.0 1.0 0.00 0.00 0.00 76 1010.8
20260905000503 85 213 0.0 2.0 0.00 0.00 0.00 75 1010.7
20260905000003 86 213 0.0 2.0 0.00 0.00 0.00 75 1010.6
20260904235503 87 213 0.0 2.0 0.00 0.00 0.00 72 1010.7
20260904235003 88 213 0.0 1.0 0.00 0.00 0.00 72 1010.7
20260904234503 88 213 0.0 1.0 0.00 0.00 0.00 70 1010.7
20260904234003 89 213 0.0 2.0 0.00 0.00 0.00 68 1010.8
20260904233503 89 213 0.0 2.0 0.00 0.00 0.00 68 1010.7
20260904233003 90 217 0.0 2.0 0.00 0.00 0.00 66 1010.9
20260904232503 90 225 0.0 2.0 0.00 0.00 0.00 66 1010.8
20260904232003 91 235 1.0 2.0 0.00 0.00 0.00 65 1010.6
20260904231524 92 238 1.0 2.0 0.00 0.00 0.00 63 1010.8
20260904231003 93 242 1.0 2.0 0.00 0.00 0.00 61 1010.8
20260904230503 94 246 0.0 2.0 0.00 0.00 0.00 60 1010.9
20260904230003 94 270 1.0 2.0 0.00 0.00 0.00 59 1011.0
20260904225503 94 285 1.0 3.0 0.00 0.00 0.00 59 1011.2
20260904225024 94 280 1.0 3.0 0.00 0.00 0.00 56 1011.2
20260904224503 95 287 1.0 3.0 0.00 0.00 0.00 57 1011.4
20260904224003 95 295 2.0 3.0 0.00 0.00 0.00 57 1011.4
20260904223503 95 293 2.0 5.0 0.00 0.00 0.00 57 1011.4
20260904223024 95 297 2.0 5.0 0.00 0.00 0.00 58 1011.6
20260904222503 95 299 2.0 5.0 0.00 0.00 0.00 59 1011.7
20260904222003 95 296 2.0 5.0 0.00 0.00 0.00 55 1011.7
20260904221503 96 292 2.0 4.0 0.00 0.00 0.00 56 1011.7
20260904221024 96 291 2.0 3.0 0.00 0.00 0.00 57 1011.8
20260904220503 96 290 2.0 4.0 0.00 0.00 0.00 56 1011.8
20260904220003 96 295 2.0 4.0 0.00 0.00 0.00 55 1011.8
20260904215503 96 297 3.0 4.0 0.00 0.00 0.00 53 1011.9
20260904215003 96 294 2.0 4.0 0.00 0.00 0.00 55 1011.8
20260904214524 96 292 2.0 4.0 0.00 0.00 0.00 56 1011.8
20260904214024 96 291 3.0 6.0 0.00 0.00 0.00 55 1011.6
20260904213503 96 291 3.0 6.0 0.00 0.00 0.00 55 1011.6
20260904213003 96 298 2.0 5.0 0.00 0.00 0.00 57 1011.6
20260904212503 96 301 2.0 5.0 0.00 0.00 0.00 54 1011.7
20260904212003 96 294 3.0 5.0 0.00 0.00 0.00 54 1011.6
20260904211503 96 296 3.0 6.0 0.00 0.00 0.00 56 1011.6
20260904211003 96 303 3.0 6.0 0.00 0.00 0.00 55 1011.6
20260904210503 96 297 3.0 5.0 0.00 0.00 0.00 56 1011.6
20260904210003 96 292 3.0 5.0 0.00 0.00 0.00 54 1011.6
20260904205503 96 296 2.0 5.0 0.00 0.00 0.00 55 1011.7
20260904205003 96 298 3.0 5.0 0.00 0.00 0.00 53 1011.7
20260904204503 97 300 3.0 5.0 0.00 0.00 0.00 55 1011.7
20260904204003 97 301 3.0 6.0 0.00 0.00 0.00 49 1011.7
20260904203503 97 300 3.0 6.0 0.00 0.00 0.00 49 1011.6
20260904203024 98 293 3.0 6.0 0.00 0.00 0.00 51 1011.6
20260904202503 98 275 4.0 7.0 0.00 0.00 0.00 52 1011.9
20260904202003 98 269 3.0 7.0 0.00 0.00 0.00 51 1012.0
20260904201503 98 282 3.0 6.0 0.00 0.00 0.00 47 1011.9
20260904201024 98 280 3.0 7.0 0.00 0.00 0.00 54 1012.0
20260904200503 98 272 3.0 7.0 0.00 0.00 0.00 50 1011.9
20260904200003 98 277 3.0 7.0 0.00 0.00 0.00 51 1012.0
20260904195503 98 291 3.0 7.0 0.00 0.00 0.00 55 1012.2
20260904195003 98 299 3.0 6.0 0.00 0.00 0.00 53 1012.3
20260904194503 98 282 4.0 11.0 0.00 0.00 0.00 50 1012.3
20260904194003 98 271 4.0 11.0 0.00 0.00 0.00 51 1012.5
20260904193503 98 264 3.0 9.0 0.00 0.00 0.00 53 1012.6
20260904193003 98 267 4.0 10.0 0.00 0.00 0.00 49 1012.7
20260904192503 98 274 3.0 10.0 0.00 0.00 0.00 49 1012.7
20260904192024 98 286 3.0 8.0 0.00 0.00 0.00 51 1012.7
20260904191503 98 280 3.0 8.0 0.00 0.00 0.00 55 1012.9
20260904191003 97 282 3.0 6.0 0.00 0.00 0.00 51 1012.9
20260904190524 97 272 4.0 10.0 0.00 0.00 0.00 53 1012.9
20260904190024 97 268 5.0 10.0 0.00 0.00 0.00 52 1013.0
20260904185503 97 277 5.0 10.0 0.00 0.00 0.00 51 1012.9
20260904185024 96 278 4.0 10.0 0.00 0.00 0.00 51 1012.9
20260904184503 96 276 4.0 9.0 0.00 0.00 0.00 56 1013.0
20260904184003 97 277 4.0 10.0 0.00 0.00 0.00 55 1013.1
20260904183524 97 284 4.0 10.0 0.00 0.00 0.00 52 1013.1
20260904183003 96 300 4.0 7.0 0.00 0.00 0.00 56 1013.2
20260904182503 96 298 4.0 8.0 0.00 0.00 0.00 53 1013.2
20260904182003 97 283 4.0 9.0 0.00 0.00 0.00 55 1013.2
20260904181503 96 288 4.0 9.0 0.00 0.00 0.00 55 1013.2
20260904181003 96 297 4.0 8.0 0.00 0.00 0.00 56 1013.3
20260904180524 96 285 4.0 10.0 0.00 0.00 0.00 57 1013.2
20260904180003 97 271 4.0 10.0 0.00 0.00 0.00 55 1013.3
20260904175524 96 285 5.0 8.0 0.00 0.00 0.00 54 1013.4
20260904175003 96 294 5.0 8.0 0.00 0.00 0.00 56 1013.4
20260904174503 96 281 4.0 9.0 0.00 0.00 0.00 57 1013.5
20260904174003 96 283 4.0 9.0 0.00 0.00 0.00 57 1013.6
20260904173524 96 289 3.0 7.0 0.00 0.00 0.00 59 1013.7
20260904173003 96 292 3.0 7.0 0.00 0.00 0.00 59 1013.7
20260904172503 97 286 2.0 8.0 0.00 0.00 0.00 55 1013.8
20260904172003 97 266 3.0 10.0 0.00 0.00 0.00 55 1013.9
20260904171503 96 271 4.0 10.0 0.00 0.00 0.00 55 1013.9
20260904171003 96 288 3.0 7.0 0.00 0.00 0.00 54 1013.9
20260904170524 96 291 3.0 7.0 0.00 0.00 0.00 57 1013.9
20260904170003 96 280 3.0 7.0 0.00 0.00 0.00 56 1014.0
20260904165503 96 274 2.0 6.0 0.00 0.00 0.00 58 1014.0
20260904165003 96 273 3.0 8.0 0.00 0.00 0.00 56 1014.0
20260904164503 96 273 4.0 8.0 0.00 0.00 0.00 55 1014.0
20260904164003 96 284 3.0 6.0 0.00 0.00 0.00 58 1014.1
20260904163503 96 283 3.0 6.0 0.00 0.00 0.00 61 1014.1
20260904163003 95 266 2.0 6.0 0.00 0.00 0.00 59 1014.1
20260904162503 95 262 3.0 8.0 0.00 0.00 0.00 59 1014.2
20260904162024 95 275 3.0 8.0 0.00 0.00 0.00 57 1014.1
20260904161503 95 283 3.0 7.0 0.00 0.00 0.00 61 1014.2
20260904161003 95 277 3.0 7.0 0.00 0.00 0.00 63 1014.2
20260904160503 95 275 3.0 6.0 0.00 0.00 0.00 61 1014.2
20260904160003 94 280 3.0 6.0 0.00 0.00 0.00 59 1014.2
20260904155503 95 286 3.0 6.0 0.00 0.00 0.00 62 1014.2
20260904155003 94 279 3.0 6.0 0.00 0.00 0.00 63 1014.2
20260904154503 94 265 2.0 5.0 0.00 0.00 0.00 64 1014.2
20260904154003 94 257 2.0 5.0 0.00 0.00 0.00 64 1014.2
20260904153503 94 266 3.0 8.0 0.00 0.00 0.00 60 1014.2
20260904153003 93 283 3.0 8.0 0.00 0.00 0.00 59 1014.2
20260904152503 93 283 2.0 5.0 0.00 0.00 0.00 64 1014.2
20260904152024 93 274 3.0 5.0 0.00 0.00 0.00 65 1014.1
20260904151524 93 274 3.0 5.0 0.00 0.00 0.00 61 1014.1
20260904151003 92 269 3.0 6.0 0.00 0.00 0.00 65 1014.2
20260904150503 92 255 2.0 7.0 0.00 0.00 0.00 67 1014.1
20260904150003 91 245 2.0 7.0 0.00 0.00 0.00 66 1014.1
20260904145503 91 255 2.0 5.0 0.00 0.00 0.00 66 1014.1
20260904145003 91 249 2.0 5.0 0.00 0.00 0.00 67 1014.1
20260904144503 90 244 2.0 4.0 0.00 0.00 0.00 67 1014.2
20260904144003 90 256 2.0 4.0 0.00 0.00 0.00 70 1014.2
20260904143503 90 264 2.0 5.0 0.00 0.00 0.00 73 1014.2
20260904143003 90 265 2.0 5.0 0.00 0.00 0.00 71 1014.1
20260904142524 89 264 2.0 6.0 0.00 0.00 0.00 70 1014.3
20260904142003 89 270 3.0 6.0 0.00 0.00 0.00 69 1014.2
20260904141524 88 275 2.0 5.0 0.00 0.00 0.00 71 1014.2
20260904141003 88 266 2.0 5.0 0.00 0.00 0.00 73 1014.2
20260904140524 87 260 2.0 5.0 0.00 0.00 0.00 75 1014.3
20260904140003 87 256 2.0 4.0 0.00 0.00 0.00 78 1014.3
20260904135503 87 258 2.0 4.0 0.00 0.00 0.00 76 1014.3
20260904135003 86 255 2.0 4.0 0.00 0.00 0.00 76 1014.3
20260904134503 86 248 1.0 4.0 0.00 0.00 0.00 76 1014.3
20260904134003 85 246 1.0 4.0 0.00 0.00 0.00 76 1014.3
20260904133503 85 236 2.0 4.0 0.00 0.00 0.00 78 1014.3
20260904133003 85 230 2.0 4.0 0.00 0.00 0.00 77 1014.3
20260904132503 84 238 1.0 4.0 0.00 0.00 0.00 77 1014.3
20260904132003 84 256 1.0 2.0 0.00 0.00 0.00 80 1014.4
20260904131503 83 246 0.0 2.0 0.00 0.00 0.00 81 1014.4
20260904131003 82 198 0.0 2.0 0.00 0.00 0.00 83 1014.4
20260904130503 81 203 0.0 2.0 0.00 0.00 0.00 84 1014.4
20260904130003 81 230 0.0 2.0 0.00 0.00 0.00 86 1014.4
20260904125503 80 0 0.0 0.0 0.00 0.00 0.00 87 1014.5
20260904125003 80 175 0.0 1.0 0.00 0.00 0.00 89 1014.4
20260904124503 79 175 0.0 1.0 0.00 0.00 0.00 92 1014.4
20260904124003 78 0 0.0 0.0 0.00 0.00 0.00 94 1014.4
20260904123503 77 0 0.0 0.0 0.00 0.00 0.00 94 1014.4
20260904123024 76 0 0.0 0.0 0.00 0.00 0.00 95 1014.3
20260904122503 75 0 0.0 0.0 0.00 0.00 0.00 96 1014.1
20260904122003 75 0 0.0 0.0 0.00 0.00 0.00 96 1014.2
20260904121503 74 0 0.0 0.0 0.00 0.00 0.00 97 1014.1
20260904121003 74 0 0.0 0.0 0.00 0.00 0.00 97 1014.2
20260904120503 73 0 0.0 0.0 0.00 0.00 0.00 97 1014.1
20260904120003 72 0 0.0 0.0 0.00 0.00 0.00 97 1014.0
20260904115503 72 0 0.0 0.0 0.00 0.00 0.00 97 1014.0
20260904115003 72 0 0.0 0.0 0.00 0.00 0.00 97 1013.9
20260904114503 71 0 0.0 0.0 0.00 0.00 0.00 97 1013.9
20260904114003 71 0 0.0 0.0 0.00 0.00 0.00 97 1013.9
20260904113503 71 0 0.0 0.0 0.00 0.00 0.00 97 1013.8
20260904113003 71 0 0.0 0.0 0.00 0.00 0.00 97 1013.8
20260904112503 71 0 0.0 0.0 0.00 0.00 0.00 97 1013.8
20260904112003 71 0 0.0 0.0 0.00 0.00 0.00 97 1013.7
20260904111503 71 0 0.0 0.0 0.00 0.00 0.00 96 1013.7
20260904111003 71 0 0.0 0.0 0.00 0.00 0.00 96 1013.7
20260904110503 71 0 0.0 0.0 0.00 0.00 0.00 97 1013.6
20260904110003 71 0 0.0 0.0 0.00 0.00 0.00 96 1013.5
20260904105503 71 0 0.0 0.0 0.00 0.00 0.00 97 1013.5
20260904105003 71 0 0.0 0.0 0.00 0.00 0.00 97 1013.5
20260904104524 71 0 0.0 0.0 0.00 0.00 0.00 97 1013.5
20260904104003 71 0 0.0 0.0 0.00 0.00 0.00 97 1013.4
20260904103503 71 0 0.0 0.0 0.00 0.00 0.00 97 1013.4
20260904103003 71 0 0.0 0.0 0.00 0.00 0.00 97 1013.4
20260904102503 71 0 0.0 0.0 0.00 0.00 0.00 97 1013.3
20260904102003 71 0 0.0 0.0 0.00 0.00 0.00 97 1013.4
20260904101503 71 0 0.0 0.0 0.00 0.00 0.00 96 1013.4
20260904101003 71 0 0.0 0.0 0.00 0.00 0.00 96 1013.3
20260904100503 71 0 0.0 0.0 0.00 0.00 0.00 96 1013.3
20260904100003 71 0 0.0 0.0 0.00 0.00 0.00 96 1013.2
20260904095503 71 0 0.0 0.0 0.00 0.00 0.00 96 1013.2
20260904095003 72 0 0.0 0.0 0.00 0.00 0.00 96 1013.2
20260904094503 72 0 0.0 0.0 0.00 0.00 0.00 97 1013.2
20260904094003 72 0 0.0 0.0 0.00 0.00 0.00 97 1013.2
20260904093503 72 0 0.0 0.0 0.00 0.00 0.00 96 1013.1
20260904093003 72 0 0.0 0.0 0.00 0.00 0.00 96 1013.2
20260904092503 71 0 0.0 0.0 0.00 0.00 0.00 96 1013.2
20260904092003 71 0 0.0 0.0 0.00 0.00 0.00 96 1013.2
20260904091524 71 0 0.0 0.0 0.00 0.00 0.00 96 1013.2
20260904091003 71 0 0.0 0.0 0.00 0.00 0.00 96 1013.2
20260904090503 72 0 0.0 0.0 0.00 0.00 0.00 96 1013.2
20260904090003 72 0 0.0 0.0 0.00 0.00 0.00 96 1013.2
20260904085503 72 0 0.0 0.0 0.00 0.00 0.00 96 1013.3
20260904085003 72 0 0.0 0.0 0.00 0.00 0.00 96 1013.2
20260904084503 72 0 0.0 0.0 0.00 0.00 0.00 96 1013.2
20260904084003 72 0 0.0 0.0 0.00 0.00 0.00 96 1013.1
20260904083503 72 0 0.0 0.0 0.00 0.00 0.00 96 1013.1
20260904083003 72 0 0.0 0.0 0.00 0.00 0.00 96 1013.1
20260904082503 72 0 0.0 0.0 0.00 0.00 0.00 96 1013.2
20260904082003 72 0 0.0 0.0 0.00 0.00 0.00 96 1013.1
20260904081503 72 0 0.0 0.0 0.00 0.00 0.00 95 1013.1
20260904081003 72 0 0.0 0.0 0.00 0.00 0.00 96 1013.1
20260904080503 72 0 0.0 0.0 0.00 0.00 0.00 96 1013.1
20260904080003 72 0 0.0 0.0 0.00 0.00 0.00 96 1013.0
20260904075503 72 0 0.0 0.0 0.00 0.00 0.00 96 1013.1
20260904075003 72 0 0.0 0.0 0.00 0.00 0.00 96 1013.0
20260904074524 72 0 0.0 0.0 0.00 0.00 0.00 96 1013.0
20260904074003 72 0 0.0 0.0 0.00 0.00 0.00 96 1012.9
20260904073503 73 0 0.0 0.0 0.00 0.00 0.00 95 1013.0
20260904073003 73 0 0.0 0.0 0.00 0.00 0.00 95 1012.9
20260904072503 73 0 0.0 0.0 0.00 0.00 0.00 95 1013.0
20260904072003 73 0 0.0 0.0 0.00 0.00 0.00 95 1013.0
20260904071524 73 0 0.0 0.0 0.00 0.00 0.00 96 1013.0
20260904071003 73 0 0.0 0.0 0.00 0.00 0.00 96 1013.0
20260904070503 73 0 0.0 0.0 0.00 0.00 0.00 96 1013.2
20260904070024 73 0 0.0 0.0 0.00 0.00 0.00 95 1013.2
20260904065503 73 0 0.0 0.0 0.00 0.00 0.00 95 1013.2
20260904065003 73 0 0.0 0.0 0.00 0.00 0.00 95 1013.2
20260904064503 73 0 0.0 0.0 0.00 0.00 0.00 95 1013.3
20260904064003 73 0 0.0 0.0 0.00 0.00 0.00 95 1013.3
20260904063503 73 0 0.0 0.0 0.00 0.00 0.00 95 1013.3
20260904063003 73 0 0.0 0.0 0.00 0.00 0.00 95 1013.4
20260904062524 74 0 0.0 0.0 0.00 0.00 0.00 95 1013.4
20260904062003 74 0 0.0 0.0 0.00 0.00 0.00 95 1013.4
20260904061503 74 0 0.0 0.0 0.00 0.00 0.00 95 1013.4
20260904061003 73 0 0.0 0.0 0.00 0.00 0.00 95 1013.5
20260904060503 73 0 0.0 0.0 0.00 0.00 0.00 95 1013.6
20260904060003 74 0 0.0 0.0 0.00 0.00 0.00 95 1013.6
20260904055503 74 0 0.0 0.0 0.00 0.00 0.00 95 1013.6
20260904055003 74 0 0.0 0.0 0.00 0.00 0.00 94 1013.5
20260904054503 74 0 0.0 0.0 0.00 0.00 0.00 95 1013.5
20260904054003 74 0 0.0 0.0 0.00 0.00 0.00 95 1013.6
20260904053503 74 0 0.0 0.0 0.00 0.00 0.00 95 1013.6
20260904053003 74 0 0.0 0.0 0.00 0.00 0.00 94 1013.7
20260904052524 74 0 0.0 0.0 0.00 0.00 0.00 94 1013.8
20260904052003 74 0 0.0 0.0 0.00 0.00 0.00 94 1013.7
20260904051503 74 0 0.0 0.0 0.00 0.00 0.00 94 1013.6
20260904051003 75 0 0.0 0.0 0.00 0.00 0.00 94 1013.6
20260904050524 75 0 0.0 0.0 0.00 0.00 0.00 94 1013.6
20260904050003 75 0 0.0 0.0 0.00 0.00 0.00 94 1013.6
20260904045503 75 0 0.0 0.0 0.00 0.00 0.00 94 1013.7
20260904045003 75 0 0.0 0.0 0.00 0.00 0.00 94 1013.7
20260904044503 75 0 0.0 0.0 0.00 0.00 0.00 94 1013.7
20260904044003 75 0 0.0 0.0 0.00 0.00 0.00 94 1013.6
20260904043503 75 0 0.0 0.0 0.00 0.00 0.00 94 1013.6
20260904043003 75 0 0.0 0.0 0.00 0.00 0.00 94 1013.6
20260904042503 75 0 0.0 0.0 0.00 0.00 0.00 94 1013.6
20260904042003 75 0 0.0 0.0 0.00 0.00 0.00 94 1013.6
20260904041503 75 0 0.0 0.0 0.00 0.00 0.00 94 1013.6
20260904041003 75 0 0.0 0.0 0.00 0.00 0.00 94 1013.5
20260904040503 75 0 0.0 0.0 0.00 0.00 0.00 93 1013.5
20260904040003 75 0 0.0 0.0 0.00 0.00 0.00 93 1013.5
20260904035503 75 0 0.0 0.0 0.00 0.00 0.00 94 1013.5
20260904035003 75 0 0.0 0.0 0.00 0.00 0.00 93 1013.5
20260904034503 76 0 0.0 0.0 0.00 0.00 0.00 94 1013.5
20260904034003 76 0 0.0 0.0 0.00 0.00 0.00 94 1013.7
20260904033503 75 0 0.0 0.0 0.00 0.00 0.00 93 1013.7
20260904033003 75 0 0.0 0.0 0.00 0.00 0.00 92 1013.8
20260904032503 76 0 0.0 0.0 0.00 0.00 0.00 93 1013.8
20260904032003 76 0 0.0 0.0 0.00 0.00 0.00 93 1013.8
20260904031503 76 0 0.0 0.0 0.00 0.00 0.00 93 1013.9
20260904031003 76 0 0.0 0.0 0.00 0.00 0.00 93 1014.0
20260904030503 76 0 0.0 0.0 0.00 0.00 0.00 93 1014.0
20260904030003 76 0 0.0 0.0 0.00 0.00 0.00 92 1014.1
20260904025503 76 0 0.0 0.0 0.00 0.00 0.00 92 1014.2
20260904025003 76 0 0.0 0.0 0.00 0.00 0.00 92 1014.0
20260904024524 77 0 0.0 0.0 0.00 0.00 0.00 92 1014.1
20260904024003 77 0 0.0 0.0 0.00 0.00 0.00 92 1014.1
20260904023524 77 0 0.0 0.0 0.00 0.00 0.00 92 1014.0
20260904023003 77 0 0.0 0.0 0.00 0.00 0.00 91 1014.1